MDT,Max TemperatureF,Mean TemperatureF,Min TemperatureF,Max Dew PointF,MeanDew PointF,Min DewpointF,Max Humidity, Mean Humidity, Min Humidity, Max Sea Level PressureIn, Mean Sea Level PressureIn, Min Sea Level PressureIn, Max VisibilityMiles, Mean VisibilityMiles, Min VisibilityMiles, Max Wind SpeedMPH, Mean Wind SpeedMPH, Max Gust SpeedMPH,PrecipitationIn, CloudCover, Events, WindDirDegrees
2013-5-1,44,32,20,23,18,10,91,60,28,30.68,30.50,30.27,10,10,10,15,6,20,0.00,3,,360
2013-5-2,54,39,24,23,18,14,81,51,20,30.67,30.55,30.37,10,10,10,18,7,22,0.00,1,,265
2013-5-3,66,49,31,26,21,18,75,47,18,30.36,30.16,30.03,10,10,10,16,9,20,0.00,2,,133
2013-5-4,60,44,28,28,24,22,69,48,27,30.25,30.17,30.11,10,10,10,16,6,21,0.00,2,,93
2013-5-5,63,47,31,29,24,21,75,49,23,30.24,30.15,30.05,10,10,9,17,5,20,0.00,1,,162
2013-5-6,68,53,38,30,26,23,62,41,20,30.06,29.98,29.88,10,10,10,21,10,25,0.00,0,,155
2013-5-7,75,57,39,35,31,27,76,47,17,29.90,29.82,29.74,10,10,10,18,6,22,0.00,1,,182
2013-5-8,71,53,35,38,35,31,89,58,26,30.09,29.99,29.88,10,10,10,22,9,28,0.00,1,,340
2013-5-9,71,54,36,47,40,33,92,60,28,30.16,30.08,30.02,10,10,10,20,9,22,0.02,3,Rain-Thunderstorm,181
2013-5-10,72,56,40,44,36,26,83,53,22,30.32,30.17,30.07,10,10,10,30,10,36,0.00,3,,358
2013-5-11,69,48,27,37,27,22,78,50,21,30.39,30.25,30.09,10,10,10,14,4,18,0.00,1,,277
2013-5-12,81,62,42,44,37,32,61,41,20,30.12,29.98,29.86,10,10,10,20,10,25,0.00,2,,257
2013-5-13,88,73,57,41,37,32,43,29,15,30.03,29.83,29.65,10,10,10,18,10,23,0.00,0,,247
2013-5-14,80,63,46,48,40,32,62,44,26,29.88,29.77,29.64,10,10,10,20,9,31,0.00,0,,347
2013-5-15,79,57,35,47,39,32,85,54,23,29.91,29.84,29.73,10,10,10,29,9,33,0.00,0,,148
2013-5-16,77,63,48,53,47,42,100,67,33,29.83,29.75,29.66,10,9,5,18,7,25,0.10,3,Rain-Thunderstorm,311
2013-5-17,74,61,47,55,52,47,96,71,46,29.89,29.77,29.64,10,10,2,33,8,40,0.25,3,Rain-Thunderstorm,3
2013-5-18,65,58,51,54,51,46,100,83,65,29.91,29.84,29.74,10,9,0,18,7,22,0.04,7,Fog-Rain-Thunderstorm,337
2013-5-19,58,53,48,52,49,44,96,87,77,29.89,29.81,29.73,10,9,2,28,16,35,0.19,8,Rain,335
2013-5-20,48,46,44,45,43,42,93,90,86,30.04,29.92,29.80,10,8,4,39,26,53,0.52,8,Rain,326
2013-5-21,57,50,42,43,41,37,96,76,55,30.04,29.98,29.93,10,10,5,24,15,29,0.00,6,Rain,343
2013-5-22,62,51,40,46,42,37,93,75,57,30.02,29.97,29.94,10,10,5,29,11,38,0.00,7,,66
2013-5-23,67,57,47,47,44,41,86,67,48,30.06,29.90,29.71,10,10,10,48,36,61,0.00,5,,149
2013-5-24,75,59,42,52,48,44,93,64,35,29.95,29.81,29.67,10,10,10,39,12,51,0.00,1,,96
2013-5-25,83,63,43,55,46,25,96,54,12,29.89,29.78,29.65,10,10,10,23,12,28,0.02,0,,175
2013-5-26,78,65,52,57,53,48,100,70,40,29.98,29.84,29.72,10,9,2,36,8,44,0.29,6,Rain-Thunderstorm,13
2013-5-27,67,54,41,53,47,40,93,73,52,29.82,29.74,29.66,10,10,10,33,8,44,T,2,Rain,350
2013-5-28,74,58,42,49,42,37,89,60,31,29.76,29.65,29.54,10,10,10,22,8,28,T,3,Rain-Thunderstorm,191
2013-5-29,61,54,47,55,50,46,96,82,67,29.62,29.57,29.50,10,9,2,17,7,23,0.63,7,Rain-Thunderstorm,291
2013-5-30,49,47,44,48,45,42,93,90,86,29.69,29.54,29.46,10,7,4,39,25,48,1.45,8,Rain,298
2013-5-31,48,46,43,45,42,40,100,88,76,30.07,29.86,29.67,10,8,3,40,28,51,0.41,8,Rain,312